Apalachicola Bay - St. George Island Weather Center

Moon Phase Calendar



Online Cameras

 


      

Current Conditions in Apalachicola
7/28/2021 10:26:07 PM

77°F
Feels Like 79
Clear
Humidity
100%
Pressure
30"
Wind
0
Dew Point
77°F
UV Index
0/10 (Low)
Visibility
6 mi

Hourly Forecast

Date & Time Wed, Jul 28
10:00 PM
Wed, Jul 28
11:00 PM
Thu, Jul 29
12:00 AM
Thu, Jul 29
1:00 AM
Thu, Jul 29
2:00 AM
Thu, Jul 29
3:00 AM
Thu, Jul 29
4:00 AM
Thu, Jul 29
5:00 AM
Thu, Jul 29
6:00 AM
Thu, Jul 29
7:00 AM
Thu, Jul 29
8:00 AM
Thu, Jul 29
9:00 AM
Thu, Jul 29
10:00 AM
Thu, Jul 29
11:00 AM
Thu, Jul 29
12:00 PM
Thu, Jul 29
1:00 PM
Thu, Jul 29
2:00 PM
Thu, Jul 29
3:00 PM
Thu, Jul 29
4:00 PM
Thu, Jul 29
5:00 PM
Thu, Jul 29
6:00 PM
Thu, Jul 29
7:00 PM
Thu, Jul 29
8:00 PM
Thu, Jul 29
9:00 PM
Thu, Jul 29
10:00 PM
Thu, Jul 29
11:00 PM
Fri, Jul 30
12:00 AM
Fri, Jul 30
1:00 AM
Fri, Jul 30
2:00 AM
Fri, Jul 30
3:00 AM
Fri, Jul 30
4:00 AM
Fri, Jul 30
5:00 AM
Fri, Jul 30
6:00 AM
Fri, Jul 30
7:00 AM
Fri, Jul 30
8:00 AM
Fri, Jul 30
9:00 AM
Fri, Jul 30
10:00 AM
Fri, Jul 30
11:00 AM
Fri, Jul 30
12:00 PM
Fri, Jul 30
1:00 PM
Fri, Jul 30
2:00 PM
Fri, Jul 30
3:00 PM
Fri, Jul 30
4:00 PM
Fri, Jul 30
5:00 PM
Fri, Jul 30
6:00 PM
Fri, Jul 30
7:00 PM
Fri, Jul 30
8:00 PM
Fri, Jul 30
9:00 PM
Condition
Clear

Clouds

Clouds

Rain

Clouds

Rain

Rain

Rain

Rain

Clouds

Clouds

Rain

Clouds

Clouds

Rain

Rain

Rain

Clouds

Clouds

Rain

Rain

Rain

Rain

Clouds

Clouds

Clouds

Clouds

Clouds

Clouds

Rain

Rain

Rain

Clouds

Rain

Rain

Rain

Clear

Clear

Clear

Clear

Clear

Clouds

Clouds

Clouds

Clouds

Clouds

Clouds

Clear
Temperature 77°F78°F78°F78°F79°F79°F79°F78°F77°F77°F78°F81°F84°F87°F89°F89°F92°F92°F89°F86°F85°F84°F83°F82°F82°F82°F82°F82°F81°F81°F81°F81°F81°F80°F81°F84°F87°F90°F91°F92°F92°F91°F90°F91°F90°F88°F86°F85°F
Feels Like 79°F80°F80°F80°F79°F79°F80°F80°F79°F79°F80°F85°F90°F94°F97°F97°F100°F100°F96°F94°F93°F91°F89°F87°F87°F88°F88°F88°F87°F87°F86°F86°F86°F85°F87°F92°F95°F98°F100°F100°F101°F100°F99°F100°F100°F98°F96°F94°F
Cloudiness 1%21%37%49%65%100%94%94%96%96%96%98%81%84%87%75%70%23%34%51%58%56%50%96%97%88%69%56%48%1%10%12%11%9%8%6%6%6%6%6%8%24%35%50%58%48%41%6%
Visibility 6 mi6 mi6 mi6 mi6 mi6 mi6 mi6 mi6 mi6 mi6 mi6 mi6 mi6 mi6 mi6 mi6 mi6 mi6 mi6 mi6 mi6 mi6 mi6 mi6 mi6 mi6 mi6 mi6 mi6 mi6 mi6 mi6 mi6 mi6 mi6 mi6 mi6 mi6 mi6 mi6 mi6 mi6 mi6 mi6 mi6 mi6 mi6 mi
Precipitation 39%39%64%69%69%46%75%83%96%76%80%46%57%65%76%80%76%22%6%30%39%43%70%37%30%26%26%30%30%50%66%70%66%70%70%28%24%25%33%25%17%0%0%0%0%0%0%0%
Humidity 100%96%93%89%85%82%84%86%90%88%84%78%70%61%59%58%54%54%60%67%71%73%75%78%78%78%79%81%83%84%84%82%82%83%81%74%66%58%55%54%55%57%60%58%61%64%69%75%
Dew Point 77°F76°F76°F75°F74°F73°F73°F74°F74°F73°F73°F73°F73°F73°F73°F73°F72°F72°F73°F74°F75°F74°F74°F74°F74°F75°F75°F75°F75°F75°F75°F75°F74°F74°F74°F75°F74°F73°F73°F72°F72°F73°F74°F74°F74°F74°F75°F76°F
Pressure 30"30"30"29.97"29.97"29.94"29.94"29.94"29.94"29.97"29.97"30"30.03"30.03"30.03"30.03"30"29.97"29.97"29.97"29.97"29.97"29.97"29.97"30"30"29.97"29.97"29.97"29.97"29.97"29.97"29.97"30"30"30.03"30.03"30.03"30.03"30.03"30"30"30"29.97"30"30"30"30"
Wind Speed 6.7 mph7.6 mph6.4 mph5.4 mph4.5 mph2.8 mph3 mph5.5 mph6.3 mph4.8 mph4 mph4 mph3 mph1.3 mph3.8 mph4.8 mph4.5 mph8.1 mph11.5 mph10.7 mph8.7 mph10 mph6.1 mph6.8 mph8.3 mph7.6 mph6.6 mph6.2 mph6 mph5.2 mph3.6 mph2.8 mph3 mph3.1 mph2.4 mph2.6 mph3.1 mph3.2 mph5.1 mph8.8 mph11.3 mph12.8 mph12.7 mph12.1 mph11.2 mph10.4 mph10.3 mph9.8 mph
Wind
Direction
272°
W
282°
WNW
296°
WNW
283°
WNW
291°
WNW
297°
WNW
313°
NW
330°
NNW
352°
N
354°
N
348°
NNW
339°
NNW
340°
NNW
317°
NW
247°
WSW
270°
W
240°
WSW
219°
SW
223°
SW
231°
SW
249°
WSW
264°
W
263°
W
272°
W
276°
W
279°
W
282°
WNW
293°
WNW
311°
NW
318°
NW
294°
WNW
300°
WNW
315°
NW
317°
NW
311°
NW
295°
WNW
297°
WNW
260°
W
212°
SSW
204°
SSW
202°
SSW
210°
SSW
225°
SW
225°
SW
226°
SW
232°
SW
237°
WSW
242°
WSW

Daily Forecast

Date High Low Precip. Humidity
Today
Jul 28

Rain
90 °F
77 °F
90%
57%
Thursday
Jul 29

Rain
92 °F
77 °F
96%
58%
Friday
Jul 30

Rain
92 °F
80 °F
70%
54%
Saturday
Jul 31

Rain
92 °F
82 °F
54%
59%
Sunday
Aug 1

Rain
90 °F
82 °F
82%
61%
Monday
Aug 2

Rain
87 °F
80 °F
99%
69%
Tuesday
Aug 3

Rain
80 °F
78 °F
100%
80%
Wednesday
Aug 4

Rain
79 °F
75 °F
100%
90%
Thursday
Aug 5

Rain
86 °F
78 °F
90%
61%
Friday
Aug 6

Rain
84 °F
79 °F
100%
73%
Saturday
Aug 7

Rain
80 °F
77 °F
100%
86%
Sunday
Aug 8

Rain
89 °F
76 °F
47%
57%
Monday
Aug 9

Rain
89 °F
81 °F
46%
57%
Tuesday
Aug 10

Rain
89 °F
79 °F
54%
56%
Wednesday
Aug 11

Rain
89 °F
79 °F
47%
58%
Thursday
Aug 12

Rain
86 °F
78 °F
87%
66%

Temperature 8-14 Day Outlook



Precipitation 8-14 Day Outlook




Quick Links
Apalachicola Bay - St. George Island News
Apalachicola Bay - St. George Island Photos
Apalachicola Bay - St. George Island Videos




About Us
Contact Us
Site Map
Search Site
Advertise With Us
   
Apalachicola.USGulf.info
THE APALACHICOLA BAY - ST. GEORGE ISLAND WEBSITE

Copyright 2021, Coastal Town
Privacy    |    Legal